Regional Weather Roundup
Issued by NWS

Home | Current Version | Previous Version | Graphics & Text | Print | Product List | Glossary On
Versions: 1 2 3 4 5 6 7 8 9 10 11 12 13 14 15 16 17 18 19 20 21 22 23 24 25 26 27 28 29 30 31 32 33 34 35 36 37 38 39 40 41 42 43 44 45 46 47 48 49 50
000
ASUS43 KMKX 281107
RWRWI

WISCONSIN REGIONAL WEATHER ROUNDUP
NATIONAL WEATHER SERVICE MILWAUKEE/SULLIVAN WI
600 AM CDT THU MAY 28 2015

NOTE: "FAIR" INDICATES FEW OR NO CLOUDS BELOW 12,000 FEET WITH NO
SIGNIFICANT WEATHER AND/OR OBSTRUCTIONS TO VISIBILITY.

WIZ001-002-006>008-014>016-023>028-281200-
NORTHWEST WISCONSIN

CITY           SKY/WX    TMP DP  RH WIND       PRES   REMARKS
SUPERIOR ARPT  PTCLDY    42  40  89 NE12G20   30.13R
ASHLAND        MOCLDY    45  44  97 N5        30.12R
HAYWARD        CLEAR     49  48  97 N6        30.09S FOG
SIREN          CLEAR     50  49  95 CALM      30.07R
CUMBERLAND     CLEAR     54  52  94 CALM      30.09R
RICE LAKE      CLEAR     53  51  92 CALM      30.10R
CHETEK         CLEAR     55  54  97 CALM      30.09R
LADYSMITH      CLEAR     53  52  97 E3        30.12R
EAU CLAIRE     NOT AVBL
MENOMONIE      CLEAR     58  57  98 E3        30.08S FOG
NEW RICHMOND   CLEAR     58  55  87 SE6       30.06R
OSCEOLA        CLEAR     56  56 100 CALM      30.08R
$$

WIZ003>005-009-010-017-018-281200-
NORTH CENTRAL WISCONSIN

CITY           SKY/WX    TMP DP  RH WIND       PRES   REMARKS
MANITOWISH WTR FOG       45  45 100 CALM      30.11S VSB 3/4
ARBOR VITAE      N/A     49  48  96 CALM      30.12R FOG
WOODRUFF         N/A     49  48  96 CALM      30.12R FOG
RHINELANDER    PTCLDY    47  47 100 CALM      30.14R FOG
EAGLE RIVER    FOG       46  46 100 CALM      30.12S VSB 1/2
LAND O LAKES   CLOUDY    44  44 100 CALM      30.14R FOG
PHILLIPS       CLEAR     50  49  97 CALM      30.11R
TOMAHAWK       FOG       45  45  98 CALM      30.13R VSB 3/4
MEDFORD        CLEAR     53  52  97 S3        30.13R
MERRILL        CLEAR     47  47 100 CALM      30.13R
$$

WIZ029-030-035-036-043>047-281200-
CENTRAL WISCONSIN

CITY           SKY/WX    TMP DP  RH WIND       PRES   REMARKS
WAUSAU         CLEAR     54  53  97 E5        30.13R
MOSINEE        NOT AVBL
MARSHFIELD     CLEAR     55  53  93 CALM      30.13R FOG
STEVENS POINT  CLEAR     50  50 100 CALM      30.14R
WAUPACA        FOG       55  55  97 CALM      30.13S VSB<1/4
WAUTOMA        NOT AVBL
WISC RAPIDS    CLEAR     53  51  93 CALM      30.15R FOG
CAMP DOUGLAS   NOT AVBL
$$

WIZ011>013-019>022-031-037>040-048>050-281200-
NORTHEAST WISCONSIN

CITY           SKY/WX    TMP DP  RH WIND       PRES   REMARKS
ANTIGO         CLEAR     49  49 100 CALM      30.14R
SHAWANO        FOG       54  53  95 CALM      30.14R VSB 3/4
OCONTO         MOCLDY    48  48 100 CALM      30.14R VSB 1/2
STURGEON BAY   CLEAR     52  48  87 CALM      30.18R
GREEN BAY      CLEAR     58  56  93 SW3       30.15R
MANITOWOC      NOT AVBL
APPLETON       CLEAR     57  55  94 S6        30.15R
CLINTONVILLE   FOG       52  52 100 CALM      30.13R VSB<1/4
OSHKOSH        CLEAR     61  56  83 S7        30.14R
$$

WIZ032>034-041-042-053>061-281200-
SOUTHWEST WISCONSIN

CITY           SKY/WX    TMP DP  RH WIND       PRES   REMARKS
LA CROSSE      CLEAR     63  59  87 S7        30.11R
SPARTA         CLEAR     51  49  95 CALM      30.14R
VIROQUA        CLEAR     59  56  89 S5        30.15R
BOSCOBEL       FOG       54  53  97 CALM      30.14S VSB<1/4
PRAIRIE DU CHI CLEAR     57  55  92 CALM      30.13F
PLATTEVILLE    CLEAR     60  56  88 S5        30.16S
$$

WIZ056-057-062-063-064-067-068-281200-
SOUTH CENTRAL WISCONSIN

CITY           SKY/WX    TMP DP  RH WIND       PRES   REMARKS
REEDSBURG      CLEAR     61  57  88 CALM      30.14R
BARABOO/DELLS  CLEAR     60  54  82 CALM      30.14S
LONE ROCK      NOT AVBL
MINERAL POINT  CLEAR     61  55  82 S5        30.16S
MADISON        PTCLDY    60  56  86 CALM      30.15R
MIDDLETON      CLEAR     64  55  72 CALM      30.16R
WATERTOWN      CLEAR    N/A N/A N/A CALM      30.16R
MONROE         CLEAR     61  55  82 S10       30.17R
JANESVILLE     CLEAR     57  55  94 CALM      30.17R
$$

WIZ051-052-058>065-066-070>072-281200-
SOUTHEAST WISCONSIN

CITY           SKY/WX    TMP DP  RH WIND       PRES   REMARKS
MILWAUKEE      PTCLDY    62  55  77 CALM      30.17R
WAUKESHA       PTCLDY    55  54  94 S3        30.18R
MILWAUKEE/TIMM PTCLDY    61  54  77 W3        30.17R
RACINE         CLEAR     61  54  77 W3        30.19R
BURLINGTON     CLEAR     53  52  98 CALM      30.17R FOG
KENOSHA        CLEAR     56  54  93 SW3       30.17R
FOND DU LAC    CLEAR     62  57  83 SW8       30.15R
SHEBOYGAN      CLEAR     60  57  89 SW7       30.15R
WEST BEND      CLEAR     61  55  82 W3        30.17R
JUNEAU         CLEAR     58  56  92 S3        30.17S
$$

LSZ147-162-281200-
LAKE SUPERIOR

STATION/POSITION TIME  TEMP    WIND        PRES    WAVE
                       AIR SEA DIR/SP/G            HT/PER
                 (UTC) (F)     (DEG/KT/KT) (MB)    (FT/S)
W MID LAKE BUOY  0950   39 37   50/ 14/ 16   N/A     3/ 4
DEVILS ISLAND    1000   41      60/ 15/ 18   N/A
PORT WING        1000   42      40/ 16/ 18   N/A
SAXON HARBOR     1000   46        CALM       N/A
$$

LMZ867-665-643>646-281200-
LAKE MICHIGAN

STATION/POSITION TIME  TEMP    WIND        PRES    WAVE
                       AIR SEA DIR/SP/G            HT/PER
                 (UTC) (F)     (DEG/KT/KT) (MB)    (FT/S)
CHAMBERS ISLAND  1000   57     200/  3/  5   N/A
N MID LAKE BUOY  0950   41 36  220/  8/  8   N/A     1/ 4
NORTHPORT PIER   1000   50     160/  2/  3   N/A
SISTER BAY       1018   50        CALM       N/A
ALGOMA LAKESHORE 1038             CALM       N/A
KEWAUNEE LAKESHO 1000   48      CALM  /  4   N/A
SHEBOYGAN LAKESH 1000   62     230/  3/  4   N/A
PORT WASHINGTON  1000   66     260/  7/ 12   N/A
ATWATER BUOY     1000   62 47  240/ 10/ 14   N/A
MILWAUKEE LAKESH 1000   66     260/  7/  8   N/A
S MID LAKE BUOY  0950   44 38  200/  8/  8   N/A     0
KENOSHA   LAKESH 1000   61     190/  4/  5   N/A
$$

TC  - TEMPERATURE IN CELSIUS
VSB - VISIBILITY IN STATUTE MILES
WCI - WIND CHILL INDEX
HX  - HEAT INDEX



USA.gov is the U.S. government's official web portal to all federal, state and local government web resources and services.